Location: Table Mountain
(47.2500°N, 120.5778°W)
Time: 23:37:19
(UTC-07:00)

OTV 5 (USA 277) - Pass Details

Date: 13 October 2017
Orbit: 404 x 417 km, 43.0° (Epoch: 07 September)

Event Time Altitude Azimuth Distance (km) Brightness Sun altitude
Rises 18:53:17 0° 231° (SW) 2,343 ? -6.8°
Reaches altitude 10° 18:55:37 10° 218° (SW) 1,483 ? -7.2°
Maximum altitude 18:58:25 24° 161° (SSE) 893 ? -7.7°
Drops below altitude 10° 19:01:12 10° 105° (ESE) 1,486 ? -8.2°
Enters shadow 19:01:14 10° 105° (ESE) 1,494 ? -8.2°
